Location: Newark
(7.0858°N, 171.3717°E)
Time: 02:30:19
(UTC+00:00)

Transit 4A - Pass Details

Date: 30 November 2020
Orbit: 864 x 980 km, 66.8° (Epoch: 20 January)

Event Time Altitude Azimuth Distance (km) Brightness Sun altitude
Rises 05:05:32 0° 13° (NNE) 3,603 10.6 15.1°
Reaches altitude 10° 05:09:46 10° 40° (NE) 2,632 9.8 14.2°
Maximum altitude 05:12:23 13° 66° (ENE) 2,413 9.5 13.6°
Drops below altitude 10° 05:14:57 10° 91° (E) 2,598 9.8 13.0°
Sets 05:19:02 0° 119° (ESE) 3,513 10.6 12.1°
